Coolangatta Observation History
Time Wind Speed Temp Pressure Rel. Hum Rain
21/09:01pm N 5-7 kts 23.9°c 1009.4 hPa 77% 0.2mm
21/09:00pm N 5-7 kts 23.9°c 1009.4 hPa 77% 0.2mm
21/08:30pm N 6-7 kts 24.1°c 1008.7 hPa 76% 0.2mm
21/08:00pm N 8-12 kts 25.4°c 1008.2 hPa 66% 0.2mm
21/07:30pm N 9-12 kts 25.3°c 1008.7 hPa 66% 0.2mm
21/07:00pm N 1-5 kts 26.9°c 1008.3 hPa 64% 0.2mm
21/06:32pm WNW 3-7 kts 26.2°c 1008.4 hPa 78% 0.2mm
21/06:30pm WSW 2-5 kts 26.5°c 1008.3 hPa 80% 0.2mm
21/06:05pm NW 6-9 kts 26.6°c 1008.3 hPa 79% 0.2mm
21/06:00pm NNW 7-12 kts 26.7°c 1008.1 hPa 78% 0.2mm
21/05:30pm N 16-24 kts 25.7°c 1006.2 hPa 86% 0.2mm
21/05:00pm N 17-22 kts 26.0°c 1006.3 hPa 84% 0.2mm
21/04:58pm N 18-23 kts 25.9°c 1006.3 hPa 84% 0.2mm
21/04:43pm N 17-27 kts 26.0°c 1006.5 hPa 85% 0.2mm
21/04:42pm N 16-27 kts 25.9°c 1006.6 hPa 85% 0.2mm
21/04:39pm N 15-22 kts 25.8°c 1006.7 hPa 85% 0.2mm
21/04:36pm N 15-22 kts 25.8°c 1006.6 hPa 85% 0.2mm
21/04:30pm N 15-21 kts 26.0°c 1006.7 hPa 84% 0.2mm
21/04:19pm N 13-18 kts 26.3°c 1005.6 hPa 83% 0.2mm
21/04:16pm N 14-19 kts 26.3°c 1005.8 hPa 83% 0.2mm
21/04:00pm N 17-21 kts 26.7°c 1005.9 hPa 82% 0.2mm
21/03:30pm N 16-21 kts 27.0°c 1005.8 hPa 80% 0.2mm
21/03:00pm N 16-22 kts 28.1°c 1006.2 hPa 76% 0.2mm
21/02:30pm N 15-21 kts 27.7°c 1006.6 hPa 77% 0.2mm
21/02:00pm N 18-24 kts 27.0°c 1006.9 hPa 78% 0.2mm
21/01:30pm N 17-23 kts 28.2°c 1007.1 hPa 76% 0.2mm
21/01:00pm N 19-26 kts 28.4°c 1007.3 hPa 77% 0.2mm
21/12:30pm N 18-24 kts 28.1°c 1007.8 hPa 76% 0.2mm
21/12:00pm N 19-25 kts 28.2°c 1008.1 hPa 76% 0.2mm
21/11:30am N 17-22 kts 28.4°c 1008.3 hPa 73% 0.2mm
21/11:00am N 19-24 kts 27.7°c 1008.4 hPa 73% 0.2mm
21/10:30am N 19-23 kts 29.0°c 1008.6 hPa 70% 0.2mm
21/10:00am N 16-21 kts 28.8°c 1008.8 hPa 64% 0.0mm
21/09:30am N 16-20 kts 28.3°c 1009.0 hPa 74% 0.0mm
21/09:00am N 14-18 kts 27.9°c 1008.8 hPa 78% 1.2mm
21/08:30am N 15-19 kts 26.5°c 1008.7 hPa 80% 1.2mm
21/08:00am N 13-17 kts 26.3°c 1009.0 hPa 81% 1.2mm
21/07:30am N 15-19 kts 26.2°c 1008.7 hPa 84% 1.2mm
21/07:00am N 13-21 kts 25.4°c 1008.7 hPa 87% 1.2mm
21/06:30am N 12-16 kts 25.8°c 1008.6 hPa 86% 1.2mm
21/06:00am N 15-18 kts 25.2°c 1008.0 hPa 89% 1.2mm
21/05:30am N 12-16 kts 25.7°c 1007.8 hPa 87% 1.2mm
21/05:01am N 10-13 kts 24.8°c 1007.9 hPa 92% 1.2mm
21/05:00am N 9-12 kts 24.7°c 1007.9 hPa 92% 1.2mm
21/04:48am N 10-12 kts 24.4°c 1008.0 hPa 93% 1.2mm
21/04:30am N 12-15 kts 24.6°c 1007.7 hPa 92% 1.2mm
21/04:00am N 11-15 kts 24.9°c 1007.2 hPa 91% 1.2mm
21/03:30am N 9-13 kts 25.3°c 1007.2 hPa 90% 1.2mm
21/03:00am N 10-13 kts 25.3°c 1007.1 hPa 90% 1.2mm
21/02:30am N 9-13 kts 25.5°c 1007.3 hPa 89% 1.2mm
21/02:13am N 9-11 kts 25.7°c 1007.4 hPa 87% 1.2mm
21/02:00am N 8-11 kts 25.7°c 1007.5 hPa 86% 1.2mm
21/01:48am N 8-12 kts 25.7°c 1007.6 hPa 86% 1.2mm
21/01:30am N 8-11 kts 25.5°c 1007.6 hPa 86% 1.2mm
21/01:27am N 8-11 kts 25.5°c 1007.7 hPa 85% 1.2mm
21/01:06am N 8-11 kts 25.7°c 1007.8 hPa 84% 1.2mm
21/01:00am N 7-10 kts 25.7°c 1007.8 hPa 84% 1.2mm
21/12:30am N 8-12 kts 25.8°c 1008.1 hPa 83% 1.2mm
21/12:00am N 10-15 kts 25.6°c 1008.4 hPa 84% 1.2mm
Time Wind Speed Temp Pressure Rel. Hum Rain
20/11:30pm N 8-13 kts 25.0°c 1008.7 hPa 82% 1.2mm
20/11:00pm N 8-11 kts 24.6°c 1009.0 hPa 79% 1.2mm
20/10:30pm N 7-10 kts 24.5°c 1009.0 hPa 80% 1.2mm
20/10:00pm N 8-11 kts 24.9°c 1009.2 hPa 78% 1.2mm
20/09:30pm N 7-9 kts 24.9°c 1008.9 hPa 80% 1.2mm
20/09:00pm N 7-9 kts 24.9°c 1008.8 hPa 81% 1.2mm
20/08:30pm N 6-7 kts 24.4°c 1008.6 hPa 84% 1.2mm
20/08:00pm N 6-7 kts 24.4°c 1008.0 hPa 80% 1.2mm
20/07:30pm N 8-15 kts 24.3°c 1007.5 hPa 75% 1.2mm
20/07:24pm N 12-19 kts 24.3°c 1007.5 hPa 74% 1.2mm
20/07:00pm N 15-20 kts 24.4°c 1007.7 hPa 83% 1.2mm
20/06:50pm N 13-19 kts 25.0°c 1007.6 hPa 89% 1.2mm
20/06:30pm N 10-14 kts 25.5°c 1007.5 hPa 87% 1.2mm
20/06:00pm N 6-10 kts 24.7°c 1006.6 hPa 81% 1.2mm
20/05:30pm N 10-15 kts 24.8°c 1006.5 hPa 80% 1.2mm
20/05:06pm NE 13-16 kts 25.0°c 1005.8 hPa 91% 1.2mm
20/05:00pm NNE 12-16 kts 25.3°c 1005.8 hPa 92% 1.2mm
20/04:56pm NNE 11-16 kts 25.3°c 1005.8 hPa 92% 1.0mm
20/04:54pm N 12-19 kts 25.5°c 1005.8 hPa 92% 1.0mm
20/04:45pm N 15-21 kts 26.0°c 1005.9 hPa 90% 0.2mm
20/04:30pm N 13-19 kts 25.6°c 1006.5 hPa 90% 0.2mm
20/04:00pm N 12-15 kts 26.0°c 1005.3 hPa 87% 0.2mm
20/03:30pm N 12-15 kts 26.7°c 1004.8 hPa 83% 0.2mm
20/03:00pm N 17-21 kts 27.2°c 1004.9 hPa 81% 0.2mm
20/02:30pm N 17-22 kts 28.8°c 1005.1 hPa 74% 0.2mm
20/02:00pm NNE 17-21 kts 27.7°c 1005.3 hPa 79% 0.2mm
20/01:30pm NNE 15-20 kts 29.0°c 1005.8 hPa 76% 0.2mm
20/01:00pm NNE 19-23 kts 28.4°c 1006.1 hPa 78% 0.2mm
20/12:30pm N 19-23 kts 28.9°c 1006.4 hPa 78% 0.2mm
20/12:00pm N 20-25 kts 28.0°c 1006.5 hPa 79% 0.2mm
20/11:30am N 19-23 kts 28.5°c 1006.8 hPa 79% 0.2mm
20/11:00am N 18-23 kts 28.1°c 1007.2 hPa 79% 0.2mm
20/10:30am N 17-22 kts 28.5°c 1007.4 hPa 78% 0.2mm
20/10:00am N 17-21 kts 28.2°c 1007.5 hPa 76% 0.2mm
20/09:30am N 16-19 kts 28.4°c 1007.8 hPa 77% 0.2mm
20/09:00am N 13-19 kts 28.3°c 1007.8 hPa 76% 9.2mm
20/08:30am N 15-19 kts 27.7°c 1007.7 hPa 80% 9.2mm
20/08:00am N 14-17 kts 26.4°c 1007.9 hPa 85% 9.2mm
20/07:30am N 11-15 kts 26.3°c 1007.8 hPa 85% 9.2mm
20/07:00am N 9-14 kts 26.6°c 1007.7 hPa 85% 9.2mm
20/06:30am N 10-13 kts 25.3°c 1007.4 hPa 91% 9.2mm
20/06:00am N 9-14 kts 25.1°c 1007.1 hPa 91% 9.2mm
20/05:42am N 7-11 kts 24.9°c 1006.9 hPa 92% 9.2mm
20/05:30am N 8-11 kts 24.8°c 1006.8 hPa 92% 9.2mm
20/05:06am N 11-14 kts 25.0°c 1006.6 hPa 92% 9.2mm
20/05:00am N 11-15 kts 25.0°c 1006.6 hPa 91% 9.2mm
20/04:30am N 14-19 kts 25.4°c 1006.2 hPa 90% 9.2mm
20/04:00am N 14-20 kts 24.5°c 1006.0 hPa 86% 9.2mm
20/03:30am N 16-23 kts 25.1°c 1005.9 hPa 91% 9.2mm
20/03:00am N 11-14 kts 23.7°c 1006.0 hPa 90% 9.2mm
20/02:55am N 11-14 kts 23.6°c 1005.8 hPa 89% 9.2mm
20/02:38am N 12-17 kts 23.5°c 1006.2 hPa 91% 9.2mm
20/02:30am N 14-21 kts 23.9°c 1006.2 hPa 90% 7.8mm
20/02:23am N 11-21 kts 24.0°c 1006.2 hPa 87% 7.6mm
20/02:13am N 9-13 kts 24.4°c 1006.0 hPa 90% 7.6mm
20/02:00am N 7-9 kts 24.2°c 1005.9 hPa 91% 7.6mm
20/01:45am N 12-16 kts 24.1°c 1005.8 hPa 90% 7.6mm
20/01:42am N 14-21 kts 24.3°c 1005.9 hPa 91% 7.4mm
20/01:39am N 15-21 kts 24.4°c 1005.9 hPa 91% 7.4mm
20/01:30am NNE 13-19 kts 24.2°c 1005.8 hPa 94% 7.4mm
20/01:17am N 15-22 kts 24.4°c 1006.1 hPa 94% 6.8mm
20/01:08am N 15-21 kts 24.3°c 1006.0 hPa 93% 6.6mm
20/01:00am N 11-17 kts 24.5°c 1006.0 hPa 94% 6.6mm
20/12:37am NE 10-14 kts 24.1°c 1006.2 hPa 95% 6.6mm
20/12:34am NNE 10-13 kts 24.2°c 1006.2 hPa 96% 6.6mm
20/12:30am NE 10-16 kts 24.1°c 1006.2 hPa 96% 6.6mm
20/12:23am NNE 12-17 kts 24.0°c 1006.2 hPa 96% 6.6mm
20/12:00am NNE 15-21 kts 24.0°c 1006.2 hPa 95% 5.0mm
Time Wind Speed Temp Pressure Rel. Hum Rain
19/11:58pm NNE 15-21 kts 23.8°c 1006.3 hPa 94% 4.8mm
19/11:36pm N 14-21 kts 24.5°c 1006.4 hPa 93% 2.2mm
19/11:30pm N 14-21 kts 24.6°c 1006.3 hPa 90% 2.0mm
19/11:22pm N 12-16 kts 24.9°c 1006.4 hPa 88% 2.0mm
19/11:00pm N 11-16 kts 25.2°c 1006.4 hPa 89% 2.0mm
19/10:55pm N 9-12 kts 25.1°c 1006.4 hPa 87% 2.0mm
19/10:50pm N 10-15 kts 25.0°c 1006.4 hPa 86% 2.0mm
19/10:46pm N 11-16 kts 24.9°c 1006.4 hPa 85% 2.0mm
19/10:35pm N 11-14 kts 25.5°c 1006.5 hPa 93% 2.0mm
19/10:30pm N 11-14 kts 25.6°c 1006.4 hPa 92% 2.0mm
19/10:27pm N 11-14 kts 25.7°c 1006.5 hPa 91% 1.6mm
19/10:00pm N 12-15 kts 25.7°c 1006.6 hPa 89% 0.2mm
19/09:30pm N 11-14 kts 25.8°c 1006.5 hPa 89% 0.2mm
19/09:00pm NNE 12-15 kts 26.0°c 1006.4 hPa 85% 0.0mm
19/08:30pm NNE 10-13 kts 26.1°c 1006.4 hPa 83% 0.0mm
19/08:00pm NNE 11-14 kts 26.1°c 1006.2 hPa 81% 0.0mm
19/07:30pm NNE 13-16 kts 26.2°c 1005.8 hPa 79% 0.0mm
19/07:00pm NNE 12-15 kts 26.1°c 1005.5 hPa 81% 0.0mm
19/06:30pm N 11-14 kts 26.3°c 1005.3 hPa 81% 0.0mm
19/06:00pm N 11-14 kts 26.5°c 1005.0 hPa 80% 0.0mm
19/05:30pm N 11-14 kts 26.5°c 1004.8 hPa 79% 0.0mm
19/05:00pm N 11-14 kts 26.8°c 1004.5 hPa 76% 0.0mm
19/04:30pm NNE 10-14 kts 26.8°c 1004.3 hPa 77% 0.0mm
19/04:00pm NNE 9-12 kts 27.8°c 1004.0 hPa 73% 0.0mm
19/03:30pm NNE 7-10 kts 26.5°c 1004.2 hPa 78% 0.0mm
19/03:00pm NNE 11-15 kts 28.5°c 1004.3 hPa 74% 0.0mm
19/02:30pm NNE 11-15 kts 28.0°c 1004.4 hPa 70% 0.0mm
19/02:00pm NNE 13-16 kts 27.8°c 1004.3 hPa 73% 0.0mm
19/01:30pm NNE 14-18 kts 27.9°c 1004.5 hPa 73% 0.0mm
19/01:00pm NNE 12-15 kts 28.1°c 1004.8 hPa 76% 0.0mm
19/12:30pm NE 13-17 kts 27.1°c 1005.0 hPa 72% 0.0mm
19/12:00pm NE 11-15 kts 27.6°c 1005.1 hPa 69% 0.0mm
19/11:30am NE 12-15 kts 27.6°c 1005.5 hPa 72% 0.0mm
19/11:00am NE 10-13 kts 27.4°c 1005.7 hPa 73% 0.0mm
19/10:30am NE 10-12 kts 27.1°c 1006.0 hPa 74% 0.0mm
19/10:00am NE 8-10 kts 27.3°c 1006.0 hPa 75% 0.0mm
19/09:30am NNE 8-9 kts 26.7°c 1005.8 hPa 75% 0.0mm
19/09:00am ENE 7-10 kts 26.5°c 1005.6 hPa 75% 10.0mm
19/08:30am NNE 7-10 kts 26.0°c 1005.9 hPa 76% 10.0mm
19/08:00am ENE 7-10 kts 26.2°c 1005.9 hPa 75% 10.0mm
19/07:30am SE 5-6 kts 25.9°c 1005.7 hPa 82% 9.8mm
19/07:00am SSW 2-4 kts 24.1°c 1005.8 hPa 92% 9.8mm
19/06:30am CALM 0 kts 22.8°c 1005.5 hPa 97% 9.8mm
19/06:03am CALM 0 kts 22.0°c 1005.2 hPa 96% 9.8mm
19/06:00am CALM 0 kts 21.9°c 1005.1 hPa 96% 9.8mm
19/05:30am CALM 0 kts 21.6°c 1004.6 hPa 96% 9.8mm
19/05:27am CALM 0 kts 21.6°c 1004.6 hPa 96% 9.8mm
19/05:26am CALM 0 kts 21.6°c 1004.5 hPa 96% 9.8mm
19/05:00am CALM 0 kts 21.2°c 1004.1 hPa 95% 9.8mm
19/04:54am CALM 0 kts 21.2°c 1004.1 hPa 95% 9.8mm
19/04:33am CALM 0 kts 21.6°c 1004.0 hPa 96% 9.8mm
19/04:30am CALM 0 kts 21.6°c 1004.0 hPa 96% 9.8mm
19/04:00am CALM 0 kts 21.6°c 1003.6 hPa 95% 9.8mm
19/03:44am CALM 0 kts 21.3°c 1003.7 hPa 94% 9.8mm
19/03:33am NW 1-4 kts 21.4°c 1003.7 hPa 94% 9.8mm
19/03:30am NW 1-4 kts 21.4°c 1003.6 hPa 94% 9.8mm
19/03:14am CALM 0 kts 21.6°c 1003.6 hPa 94% 9.8mm
19/03:00am NW 1-4 kts 21.6°c 1003.7 hPa 94% 9.8mm
19/02:30am NW 1-4 kts 21.7°c 1003.8 hPa 94% 9.8mm
19/02:00am CALM 0 kts 22.4°c 1004.1 hPa 94% 9.8mm
19/01:30am CALM 0 kts 22.2°c 1004.4 hPa 93% 9.8mm
19/01:00am NNW 1-3 kts 22.5°c 1004.6 hPa 93% 9.8mm
19/12:30am N 6-9 kts 23.0°c 1004.7 hPa 92% 9.8mm
19/12:00am N 8-14 kts 24.0°c 1004.6 hPa 91% 9.8mm